Regional Weather Roundup
Issued by NWS San Diego, CA

Home | Current Version | Previous Version | Text Only | Print | Product List | Glossary On
Versions: 1 2 3 4 5 6 7 8 9 10 11 12 13 14 15 16 17 18 19 20 21 22 23 24 25 26 27
000
ASUS46 KSGX 011511
RWRSGX

SAN DIEGO HOURLY WEATHER ROUNDUP
NATIONAL WEATHER SERVICE SAN DIEGO CA
800 AM PDT SAT OCT 01 2016

NOTE: "FAIR" INDICATES FEW OR NO CLOUDS BELOW 12,000 FEET WITH NO
SIGNIFICANT WEATHER AND/OR OBSTRUCTIONS TO VISIBILITY.

CAZ042-043-060-061-PZZ750-775-011600-

GREATER SAN DIEGO AREA

CITY           SKY/WX    TMP DP  RH WIND       PRES   REMARKS
LINDBERGH FLD  FOG       67  65  93 N3        30.01R VSB 1
NATIONAL CITY    N/A     66  63  90 CALM      30.01R
CHULA VISTA      N/A     65  62  89 CALM      29.92R
IMPERIAL BEACH   N/A     69  66  90 NW5       30.00R VSB 1/4
BROWN FIELD    SUNNY     68  63  84 CALM      30.00R
MIRAMAR MCAS   MOSUNNY   70  61  73 W3        30.00R
MONTGOMERY FLD SUNNY     67  62  84 W5        30.00R

$$

NORTH SAN DIEGO COUNTY

CITY           SKY/WX    TMP DP  RH WIND       PRES   REMARKS
CAMP PENDLETON SUNNY     63  57  81 NE3       30.00R
OCEANSIDE AP   SUNNY     64  57  78 CALM      29.99R
OCEANSIDE HBR    N/A     66  63  91 CALM      30.02R
VISTA            N/A     60  55  82 CALM      29.97R
CARLSBAD       MOSUNNY   66  64  93 CALM      29.99R FOG
DEL MAR          N/A     65  65  98 CALM      30.02R
LA JOLLA SCRIP   N/A     66  66 100 SW1       29.98S
FALLBROOK        N/A     63  62  97 CALM      29.97R
ESCONDIDO        N/A     65  58  79 CALM      30.00R
SAN MARCOS       N/A     65  57  73 CALM      30.02R
POWAY            N/A     65  58  79 CALM      30.00R

$$

EAST SAN DIEGO COUNTY

CITY           SKY/WX    TMP DP  RH WIND       PRES   REMARKS
RAMONA         SUNNY     65  52  62 CALM      30.03R
SANTEE LAKES     N/A     63  59  87 CALM      29.98R
LA MESA          N/A     65  57  75 CALM      29.92R
JAMUL            N/A     66  57  71 CALM      29.98R
DESCANSO N       N/A     60  50  69 NE2       29.93S
MT. LAGUNA OBS   N/A     59  47  64 CALM      29.79R
CAMPO            N/A     60  52  74 NE5       30.05R

$$

ORANGE COUNTY AND THE LOS ANGELES BASIN

CITY           SKY/WX    TMP DP  RH WIND       PRES   REMARKS
JOHN WAYNE AP  MOSUNNY   69  59  70 CALM      29.99R
LAGUNA BEACH     N/A     66  63  89 N3        29.94R
LAKE FOREST FR   N/A     64  54  69 CALM      29.89R
HUNTINGTON BCH   N/A     69  67  94 CALM      30.00S
LOS ALAMITOS   SUNNY     68  63  85 W1        29.99R
FULLERTON      SUNNY     69  61  75 CALM      29.99R
LONG BEACH     SUNNY     68  62  81 CALM      29.99R
L.A. AP        SUNNY     68  62  81 E5        29.99R
L.A. DOWNTOWN  SUNNY     68  62  81 E3        29.99R

$$

THE INLAND EMPIRE

CITY           SKY/WX    TMP DP  RH WIND       PRES   REMARKS
CORONA         SUNNY     64  52  64 CALM      30.01R
CHINO          SUNNY     67  53  61 CALM      30.02R
ONTARIO        MOSUNNY   71  50  47 CALM      30.01R
SAN BERNARDINO SUNNY     68  48  49 CALM      30.02R
RIVERSIDE AP   SUNNY     68  51  54 CALM      30.01R
MORENO VALLEY    N/A     68  55  64 CALM      28.14R
MARCH ARB      SUNNY     66  49  54 CALM      30.03R
HORSETHIEF CYN   N/A     67  52  57 CALM      30.00R
PERRIS           N/A     62  53  72 CALM      30.04S
HEMET EAST       N/A     66  48  51 CALM      30.03R
FRENCH VALLEY  FAIR      64  52  63 CALM      30.03S
TEMECULA         N/A     61  56  82 CALM      30.09R

$$

SAN BERNARDINO AND RIVERSIDE COUNTY MOUNTAINS

CITY           SKY/WX    TMP DP  RH WIND       PRES   REMARKS
BIG BEAR AP    SUNNY     41  34  75 CALM      30.26S
ANGELUS OAKS     N/A     52  44  73 CALM      29.91R
PINE COVE        N/A     56  44  63 CALM      29.97R

$$

SOUTHERN DESERT INCLUDING THE COACHELLA VALLEY

CITY           SKY/WX    TMP DP  RH WIND       PRES   REMARKS
PALM SPRINGS   SUNNY     77  54  44 CALM      29.94R
PALM DESERT      N/A     75  59  58 CALM      28.30R
THERMAL        SUNNY     75  56  51 SE3       29.90R
BLYTHE         SUNNY     79  56  45 CALM      29.93R
IMPERIAL AP    SUNNY     79  60  52 SE6       29.90R
EL CENTRO NAS  SUNNY     82  60  47 SW5       29.92R
MEXICALI       SUNNY     75  61  60 SE2       29.92

$$

UPPER DESERT

CITY           SKY/WX    TMP DP  RH WIND       PRES   REMARKS
VICTORVILLE AP SUNNY     64  45  48 CALM      30.07S
HESPERIA         N/A     68  47  46 W2        30.05R
PALMDALE       SUNNY     62  42  47 CALM      30.06R
LANCASTER      SUNNY     65  36  34 W10       30.05R
EDWARDS AFB    SUNNY     60  37  42 SW7       30.03S
DAGGETT        SUNNY     69  43  38 W8        30.01R
29 PALMS N     MOSUNNY   68  43  40 NW6       30.08R
NEEDLES        SUNNY     83  53  35 NW5       29.95R

$$

REGIONAL REPORTS

CITY           SKY/WX    TMP DP  RH WIND       PRES   REMARKS
SANTA BARBARA  SUNNY     59  56  89 CALM      29.98R
SANDBERG       SUNNY     60  36  40 W10       30.14R
LAS VEGAS NV   MOSUNNY   76  43  30 S7        29.99R
PHOENIX AZ     MOSUNNY   78  55  44 E6        30.00R
TIJUANA        SUNNY     66  61  82 CALM      30.02R
ENSENADA NW      N/A     66  32  28 CALM      29.97R

$$

OFFSHORE ISLANDS

CITY           SKY/WX    TMP DP  RH WIND       PRES   REMARKS
CATALINA ARPT  SUNNY     72  40  31 VRB3      30.03R
SAN NICOLAS IS SUNNY     64  32  30 W16       30.00R

$$

MARINE AND OFFSHORE BUOY REPORTS

STATION/POSITION SKY/WX   TEMP    WIND        PRES    SWELL
                          AIR SEA DIR/SP/G            HT/PER/DIR
                          (F)     (DEG/KT/KT) (MB)    (FT/S/D)
TANNER BANKS               64 66  310/ 17/ 21 1016.2R   3/210/17
S CLEMENTE BASIN           66 69  290/ 12/ 12 1015.4R   7/210/16
SO. S. ROSA ISLA           61 63  310/ 23/ 27 1015.5R   5/120/17
W. S. BARBARA CH           59 59  320/ 19/ 23 1015.8R   5/310/ 8
M. S. BARBARA CH                  360/  4/  4 1015.1R
S. MONICA BASIN            67 70  350/ 10/ 12 1014.5R
S PEDRO CHANNEL               69                N/A     2/180/17
OCEANSIDE OFFSHR              71                N/A     3/200/17
TORREY PINES OTR              69                N/A     3/190/17
POINT LOMA SOUTH              71                N/A     3/180/17

$$





USA.gov is the U.S. government's official web portal to all federal, state and local government web resources and services.